Regional Weather Roundup
Issued by NWS

Home | Current Version | Previous Version | Text Only | Print | Product List | Glossary Off
Versions: 1 2 3 4 5 6 7 8 9 10 11 12 13 14 15 16 17 18 19 20 21 22 23 24 25 26 27 28 29 30 31 32 33 34 35 36 37 38 39 40 41 42 43 44 45 46 47 48 49 50

000
ASUS43 KOAX 291610
RWRNE

WEATHER ROUNDUP FOR NEBRASKA
NATIONAL WEATHER SERVICE OMAHA NE
1100 AM CDT TUE JUL 29 2014

NOTES: SATELLITE DATA IS BEING USED TO AUGMENT CLOUD COVER ABOVE
       12000 FEET.
       "FAIR" INDICATES FEW OR NO CLOUDS BELOW 12,000 FEET WITH NO
       SIGNIFICANT WEATHER AND/OR OBSTRUCTIONS TO VISIBILITY.

  * THESE STATIONS DO NOT REPORT WEATHER SUCH AS RAIN...SNOW OR FOG.

NEZ001>004-019>022-054>056-291700-
NEBRASKA PANHANDLE

CITY           SKY/WX    TMP DP  RH WIND       PRES   REMARKS
SCOTTSBLUFF    CLOUDY    64  58  80 E8        30.28S
ALLIANCE       SUNNY     71  56  58 E12       30.26F
CHADRON        PTSUNNY   70  58  65 VRB5      30.23F
KIMBALL        SUNNY     69  59  71 E7        30.27S
SIDNEY         SUNNY     74  58  57 E9        30.27S
$$

NEZ057>060-069>072-079>082-291700-
SOUTHWEST NEBRASKA

CITY           SKY/WX    TMP DP  RH WIND       PRES   REMARKS
NORTH PLATTE   PTSUNNY   65  57  75 E7        30.24S
IMPERIAL       CLOUDY    69  57  65 SE12      30.24S
LEXINGTON      PTSUNNY   69  57  67 SE9       30.24F
MCCOOK         SUNNY     75  57  53 E10       30.23F
OGALLALA       SUNNY     69  57  65 SE7G16    30.24F
$$

NEZ005>010-023>029-035>040-094-291700-
NORTH CENTRAL NEBRASKA

CITY           SKY/WX    TMP DP  RH WIND       PRES   REMARKS
VALENTINE      CLOUDY    73  57  57 W6        30.25F
AINSWORTH      PTSUNNY   70  56  60 CALM      30.26S
BROKEN BOW     CLOUDY    70  57  63 S7        30.25F
O`NEILL        MOSUNNY   72  50  46 CALM      30.26S
ORD            PTSUNNY   70  58  65 SW7       30.24S
THEDFORD       MOSUNNY   72  58  62 S9        30.27S
$$

NEZ041-046>049-061>064-073>077-083>087-291700-
SOUTH CENTRAL NEBRASKA

CITY           SKY/WX    TMP DP  RH WIND       PRES   REMARKS
GRAND ISLAND   MOSUNNY   72  54  53 VRB3      30.25S
AURORA         MOSUNNY   72  56  55 CALM      30.25S
HASTINGS       CLOUDY    69  55  60 S6        30.25S
HEBRON         CLOUDY    70  55  60 W5        30.24S
HOLDREGE       MOSUNNY   70  55  58 E10       30.24F
KEARNEY *      PTSUNNY   70  55  60 SE7       30.25F
YORK           MOSUNNY   72  57  60 NW3       30.24S
$$

NEZ011>018-030>034-042>045-291700-
NORTHEAST NEBRASKA

CITY           SKY/WX    TMP DP  RH WIND       PRES   REMARKS
NORFOLK        MOSUNNY   73  54  51 N6        30.24R
ALBION         MOSUNNY   71  54  54 SW3       30.25S
BLAIR          PTSUNNY   70  58  66 W3        30.22S
COLUMBUS *     MOSUNNY   72  55  56 W5        30.24S
FREMONT        SUNNY     74  60  60 NW3       30.22S
TEKAMAH        MOSUNNY   72  57  59 NE5       30.22S
WAYNE          PTSUNNY   68  58  70 N3        30.24S
$$

NEZ050>053-065>068-078-088>093-291700-
SOUTHEAST NEBRASKA

CITY           SKY/WX    TMP DP  RH WIND       PRES   REMARKS
LINCOLN        MOSUNNY   77  56  48 VRB5      30.23R
OMAHA EPPLEY   PTSUNNY   74  57  55 N9        30.21F
BEATRICE       PTSUNNY   71  59  65 W5        30.22S
FALLS CITY     MOSUNNY   76  60  57 CALM      30.20R
NEBRASKA CITY  SUNNY     72  57  58 N5        30.21R
PLATTSMOUTH    SUNNY     73  58  58 NW3       30.21S
$$

NEZ044-045-051>053-067-291700-
OMAHA AREA

CITY           SKY/WX    TMP DP  RH WIND       PRES   REMARKS
OMAHA EPPLEY   PTSUNNY   74  57  55 N9        30.21F
BLAIR          PTSUNNY   70  58  66 W3        30.22S
FREMONT        SUNNY     74  60  60 NW3       30.22S
MILLARD        MOSUNNY   73  59  61 CALM      30.21S
OFFUTT AFB     MOSUNNY   72  61  67 NW3       30.21R
PLATTSMOUTH    SUNNY     73  58  58 NW3       30.21S
WAHOO          FAIR      74  60  61 N6        30.22S
$$


USA.gov is the U.S. government's official web portal to all federal, state and local government web resources and services.